Change the Weather History Date:

Tuesday, February 4, 2014

  Actual Average Record
Temperature  
Mean Temperature 55 °F -  
Max Temperature 66 °F 62 °F 80 °F (1957)
Min Temperature 44 °F 43 °F 23 °F (1951)
Degree Days  
Heating Degree Days 10    
Growing Degree Days 5 (Base 50)    
Moisture  
Dew Point 53 °F    
Average Humidity 90    
Maximum Humidity 93    
Minimum Humidity 84    
Precipitation  
Precipitation 0.22 in - - ()
Sea Level Pressure  
Sea Level Pressure 29.99 in    
Wind  
Wind Speed 7 mph (East)    
Max Wind Speed 16 mph    
Max Gust Speed 23 mph    
Visibility 2 miles    
Events Fog , Rain    
Averages and records for this station are not official NWS values.
T = Trace of Precipitation, MM = Missing Value Source: NWS Daily Summary

Daily Weather History Graph

Daily Weather History Graph

Search for Another Location

Airport or City:

Trip Planner

Search our weather history database for the weather conditions in past years. The results will help you decide how hot, cold, wet, or windy it might be!

Date:

Astronomy

Feb. 04, 2014 Rise Set
Actual Time 6:45 AM CST 5:35 PM CST
Civil Twilight 6:20 AM CST 6:00 PM CST
Nautical Twilight 5:51 AM CST 6:29 PM CST
Astronomical Twilight 5:23 AM CST 6:57 PM CST
Moon 9:49 AM CST (2/4) 11:01 PM CST (2/4)
Length of Visible Light 11h 40m
Length of Day
10h 50m
Waxing Crescent, 29% of the Moon is Illuminated
Feb 4
Waxing Crescent
Feb 6
First Quarter
Feb 14
Full
Feb 22
Last Quarter
Mar 1
New

Hourly Weather History & Observations

Time (CST) Temp. Windchill Dew Point Humidity Pressure Visibility Wind Dir Wind Speed Gust Speed Precip Events Conditions
12:05 AM 45.0 °F 41.8 °F 42.1 °F 90% 30.09 in 2.5 mi NNE 5.8 mph - N/A   Overcast
12:53 AM 45.0 °F 40.6 °F 41.0 °F 86% 30.09 in 2.0 mi North 8.1 mph - N/A   Overcast
1:03 AM 45.0 °F 41.2 °F 42.1 °F 90% 30.09 in 1.5 mi NNE 6.9 mph - N/A   Overcast
1:53 AM 44.1 °F 39.0 °F 41.0 °F 89% 30.09 in 1.5 mi NNE 9.2 mph - N/A   Overcast
2:23 AM 44.1 °F 40.1 °F 42.1 °F 93% 30.07 in 2.0 mi NNE 6.9 mph - N/A   Overcast
2:46 AM 45.0 °F 41.8 °F 41.0 °F 86% 30.06 in 3.0 mi NNE 5.8 mph - N/A   Overcast
2:53 AM 45.0 °F 41.2 °F 42.1 °F 90% 30.06 in 3.0 mi NE 6.9 mph - N/A   Overcast
3:53 AM 45.0 °F 42.6 °F 42.1 °F 90% 30.06 in 2.5 mi NE 4.6 mph - N/A   Overcast
4:30 AM 46.0 °F 43.9 °F 43.0 °F 89% 30.05 in 1.5 mi NE 4.6 mph - N/A   Overcast
4:51 AM 46.4 °F 43.5 °F 42.8 °F 87% 30.05 in 0.8 mi NNE 5.8 mph - N/A   Overcast
4:53 AM 46.0 °F 43.1 °F 43.0 °F 89% 30.05 in 0.8 mi NNE 5.8 mph - N/A   Overcast
5:53 AM 46.0 °F 43.9 °F 43.0 °F 89% 30.05 in 0.5 mi NE 4.6 mph - N/A Fog Fog
6:53 AM 46.9 °F - 44.1 °F 90% 30.06 in 0.5 mi ENE 4.6 mph - N/A Fog Fog
7:53 AM 48.0 °F - 45.0 °F 89% 30.05 in 0.2 mi East 8.1 mph - N/A Fog Fog
8:33 AM 48.0 °F - 46.0 °F 93% 30.05 in 0.5 mi NE 3.5 mph - N/A Fog Fog
8:53 AM 48.9 °F - 46.0 °F 90% 30.06 in 0.8 mi ENE 4.6 mph - N/A   Overcast
9:36 AM 50.0 °F - 48.0 °F 93% 30.07 in 0.2 mi East 4.6 mph - N/A Fog Fog
9:53 AM 51.1 °F - 48.9 °F 92% 30.07 in 0.2 mi East 4.6 mph - N/A Fog Fog
10:53 AM 54.0 °F - 51.1 °F 90% 30.03 in 2.5 mi East 8.1 mph - N/A   Overcast
11:02 AM 54.0 °F - 51.1 °F 90% 30.02 in 4.0 mi East 9.2 mph - N/A   Overcast
11:33 AM 55.0 °F - 52.0 °F 89% 30.00 in 4.0 mi East 5.8 mph - N/A   Overcast
11:53 AM 57.0 °F - 53.1 °F 87% 29.99 in 4.0 mi East 5.8 mph - N/A   Overcast
12:53 PM 62.1 °F - 57.0 °F 84% 29.95 in 4.0 mi ESE 12.7 mph - N/A   Haze
1:30 PM 62.1 °F - 57.9 °F 86% 29.93 in 1.5 mi ESE 10.4 mph - N/A   Overcast
1:53 PM 61.0 °F - 57.9 °F 90% 29.93 in 0.8 mi SE 12.7 mph - N/A   Overcast
2:53 PM 62.1 °F - 59.0 °F 90% 29.91 in 0.5 mi SE 11.5 mph - N/A Fog Fog
3:26 PM 61.0 °F - 59.0 °F 93% 29.90 in 0.5 mi SE 10.4 mph - N/A Fog Fog
3:38 PM 62.1 °F - 59.0 °F 90% 29.91 in 0.5 mi SE 8.1 mph - N/A Fog Fog
3:53 PM 62.1 °F - 59.0 °F 90% 29.90 in 0.5 mi SSE 8.1 mph - N/A Fog Fog
4:53 PM 64.0 °F - 61.0 °F 90% 29.90 in 0.5 mi SSE 10.4 mph - N/A Fog Fog
5:53 PM 64.0 °F - 61.0 °F 90% 29.89 in 0.5 mi SSE 12.7 mph - N/A Fog Fog
6:53 PM 64.0 °F - 62.1 °F 93% 29.89 in 0.5 mi SSE 15.0 mph - N/A Fog Fog
7:53 PM 64.0 °F - 62.1 °F 93% 29.88 in 0.5 mi South 11.5 mph 20.7 mph N/A Fog Fog
8:53 PM 64.0 °F - 62.1 °F 93% 29.87 in 0.5 mi South 15.0 mph 23.0 mph N/A Fog Fog
9:53 PM 64.9 °F - 63.0 °F 93% 29.89 in 0.5 mi South 16.1 mph 23.0 mph N/A Fog Fog
10:53 PM 64.9 °F - 63.0 °F 93% 29.94 in 0.5 mi West 10.4 mph - 0.08 in Fog , Rain Heavy Rain
10:59 PM 64.9 °F - 63.0 °F 93% 29.93 in 1.8 mi WSW 9.2 mph 17.3 mph 0.02 in Rain Light Rain
11:03 PM 64.9 °F - 63.0 °F 93% 29.93 in 3.0 mi West 8.1 mph 17.3 mph 0.03 in Rain Light Rain
11:12 PM 64.9 °F - 63.0 °F 93% 29.94 in 2.5 mi West 6.9 mph - 0.06 in Rain Rain
11:19 PM 64.9 °F - 63.0 °F 93% 29.94 in 2.0 mi West 4.6 mph - 0.08 in Rain Rain
11:28 PM 66.0 °F - 63.0 °F 90% 29.94 in 3.0 mi WNW 4.6 mph - 0.10 in Rain Light Rain
11:53 PM 66.0 °F - 64.0 °F 93% 29.95 in 4.0 mi West 8.1 mph - 0.14 in Rain Light Rain